Regional Weather Roundup
Issued by NWS Mt. Holly, NJ

Home | Current Version | Previous Version | Text Only | Print | Product List | Glossary On
Versions: 1 2 3 4 5 6 7 8 9 10 11 12 13 14 15 16 17 18 19 20 21 22 23 24 25 26 27 28 29 30 31 32 33 34 35 36 37 38 39 40 41 42 43
000
ASUS41 KPHI 272210
RWRPHI

REGIONAL WEATHER ROUNDUP
NATIONAL WEATHER SERVICE MOUNT HOLLY NJ
500 PM EST SAT DEC 27 2014

NOTE:  "FAIR" INDICATES FEW OR NO CLOUDS BELOW 12,000 FEET WITH NO
SIGNIFICANT WEATHER AND/OR OBSTRUCTIONS TO VISIBILITY.

 * = STATION DOES NOT REPORT PRECIPITATION (E.G. RAIN, SNOW, ETC.)
        OR FOG.

NJZ015>026-272300-
SOUTHERN NEW JERSEY

CITY           SKY/WX    TMP DP  RH WIND       PRES   REMARKS
POMONA         PTCLDY    46  39  76 SE6       30.18F
RIO GRANDE*    PTCLDY    46  37  71 S6        30.17S
MILLVILLE      PTCLDY    46  37  71 CALM      30.18F
WRIGHTSTOWN    CLEAR     48  33  55 CALM      30.15F
MOUNT HOLLY    CLEAR     51  31  46 CALM      30.17F
TRENTON        PTCLDY    52  31  44 S3        30.16F

$$
NJZ001>014-272300-
NORTHERN NEW JERSEY

CITY           SKY/WX    TMP DP  RH WIND       PRES   REMARKS
SUSSEX         PTCLDY    48  35  60 CALM      30.14F
ANDOVER*       NOT AVBL
MORRISTOWN     CLEAR     52  34  50 SW5       30.16F
NEWARK         MOCLDY    51  35  54 SE8       30.16F
TETERBORO      CLEAR     50  35  56 S8        30.15F
CALDWELL       PTCLDY    51  33  50 S3        30.16F
SOMERVILLE     PTCLDY    48  32  53 CALM      30.14F
ALLAIRE*       PTCLDY    52  30  43 SW3       30.17F
TOMS RIVER*    CLEAR     46  37  71 S6        30.18F

$$
PAZ043-044-047-054-055-060>062-066>071-272300-
EASTERN PENNSYLVANIA

CITY           SKY/WX    TMP DP  RH WIND       PRES   REMARKS
PHILADELPHIA   MOCLDY    54  28  36 S6        30.17F
NORTH PHILA    CLEAR     54  28  36 CALM      30.18F
BLUE BELL      CLEAR     52  34  50 CALM      30.16S
DOYLESTOWN     PTCLDY    49  31  49 CALM      30.15F
QUAKERTOWN*    PTCLDY    50  32  50 CALM      30.16S
POTTSTOWN      PTCLDY    53  31  42 CALM      30.16F
LANCASTER      CLEAR     47  35  63 E5        30.14F
COATESVILLE    CLEAR     52  34  50 CALM      30.16S
READING        CLEAR     53  32  44 CALM      30.14F
ALLENTOWN      PTCLDY    46  33  60 SW5       30.15F
MOUNT POCONO   PTCLDY    45  32  60 SW5       30.12F
HAZLETON       MOCLDY    48  34  57 CALM      30.15S
WILKES BARRE   MOCLDY    49  32  52 CALM      30.12F

$$
DEZALL-MDZ008-012-015-019-020-272300-
DELAWARE AND EASTERN MARYLAND

CITY           SKY/WX    TMP DP  RH WIND       PRES   REMARKS
WILMINGTON     CLEAR     49  31  49 S5        30.17F
DOVER          PTCLDY    43  39  86 SE7       30.17S
GEORGETOWN     PTCLDY    51  41  68 NE3       30.19F
EASTON         CLEAR     52  45  76 CALM      30.22S
PATUXENT       MOCLDY    47  34  60 S7        30.19F
OCEAN CITY     CLEAR     48  40  73 SW7       30.21F
WALLOPS ISLAND CLEAR     45  42  89 S7        30.22S
CAMBRIDGE      CLEAR     52  39  62 S6        30.19S
SALISBURY      CLEAR     54  35  48 S6        30.20R

$$
PAZ001-021-NYZ056-072-MDZ011-DCZ001-272300-
OTHER NEARBY LOCATIONS

CITY           SKY/WX    TMP DP  RH WIND       PRES   REMARKS
HARRISBURG     MOCLDY    46  34  62 SE5       30.13S
STATE COLLEGE  CLEAR     50  34  53 SW3       30.09S
WILLIAMSPORT   MOCLDY    48  33  56 SE7       30.10F
BINGHAMTON     MOCLDY    45  34  65 S7        30.06F
NEW YORK CITY  CLEAR     51  34  52 S8        30.18F
BALTIMORE      MOCLDY    52  29  41 S3        30.17R
WASHINGTON DC  MOCLDY    56  31  38 SE5       30.19R

$$


USA.gov is the U.S. government's official web portal to all federal, state and local government web resources and services.